Tracking 25709 objects as of 25-May-2022
HD Live streaming from Space Station
objects crossing your sky now

SL-12 R/B(2)

Track SL-12 R/B(2) now!


NORAD ID: 24897
Int'l Code: 1997-041D
Perigee: 34,369.2 km
Apogee: 37,373.2 km
Inclination: 14.4 °
Period: 1,440.1 minutes
Semi major axis: 42242 km
RCS: 1 m2 (large)
Launch date: August 14, 1997
Source: Commonwealth of Independent States (former USSR) (CIS)
Launch site: TYURATAM MISSILE AND SPACE COMPLEX (TTMTR)

Note: This is a ROCKET BODY
aabbcc
Your satellite tracking list
Your tracking list is empty




NASA's NSSDC Master Catalog

Two Line Element Set (TLE):
1 24897U 97041D   22144.59597125 -.00000315  00000-0  00000-0 0  9997
2 24897  14.3632   9.3308 0355568 265.1392 102.2334  0.99996096 90511
Source of the keplerian elements: AFSPC